Location: Waldport
(44.4270°N, 124.0680°W)
Time: 20:33:48
(UTC-07:00)

ISS - Pass Details

Date: 26 February 2019
Orbit: 406 x 411 km, 51.6° (Epoch: 21 March)

Event Time Altitude Azimuth Distance (km) Brightness Sun altitude
Exits shadow 04:18:40 10° 113° (ESE) 1,434 -0.5 -29.1°
Drops below altitude 10° 04:18:51 10° 110° (ESE) 1,461 -0.4 -29.1°
Sets 04:22:04 0° 76° (ENE) 2,327 1.3 -28.5°
